STARLINK-31220, 59039

Orbit data source: Space-Track

STARLINK-31220, 59039 is a payload satellite owned by SpaceX/Seattle (US) in LEO that was launched on Sun, 25 Feb 2024 UTC via an FALCON 9 launch vehicle from the Air Force Eastern Test Range (AFETR). Payload-class satellites include a variety of spacecraft equipped with specific instruments for various scientific and technological missions. These include communications satellites like Starlink; space stations such as the ISS; scientific satellites like the Hubble; Earth observation satellites from companies like Planet Labs, Umbra, and HawkEye 360; GPS; miniature CubeSats for education and research; and military/defense satellites.

Loading next visibility...
Identifier
59039, 2024-038S
Orbit
LEO
Country
Flag of USUS
Related business
Manufacturer
SpaceX/Seattle
Mission
Operational Commercial Communications
Bus & Motor
STARLINK V2M, Unknown motor
Mass
730 kg wet, ~700 kg dry
Launch date (UTC)
2024-02-25 (2 years ago)
Launch vehicle
FALCON 9
Launch site
Air Force Eastern Test Range (AFETR)
Object type
Payload
Rocket body
Debris
Shape & HBR
Box + 2 Pan, 17.7 m
Radar Cross Section
33.884 m², Large (>1 m²)

Expand to show TLE details & history
Last TLE update: 21 hours ago

TLE from 21 hours ago
0 STARLINK-31220
1 59039U 24038S   25348.72050434  .00001002  00000-0  45959-4 0  9999
2 59039  43.0007 146.8372 0001573 262.4068  97.6605 15.27565098101763
Epoch: 2025-12-14T17:17Z
TLE epoch observation values (Epoch: 2025-12-14T17:17:31.574Z)
Latitude
-0.00004°
Longitude
163.82623°
Altitude
483.013 km
Speed
7.626 km/s
True Right ascension
09h 47m 20s
True Declination
0° 00' 00"
Sunlit
Object was in full shadow at epoch
Visualization orbit readout
Latitude
Unknown
Longitude
Unknown
Altitude
Unknown
Speed
Unknown
Apparent Right ascension
Unknown
Apparent Declination
Unknown
Sunlit
N/A
Visualization observer readout
Local Sidereal Time
13:19:50
Azimuth
Unknown
Elevation
Unknown
Doppler factor
Unknown
Orbital elements
Apogee altitude
486.118 km
Perigee altitude
483.959 km
Semi-major axis
6,863.176 km
Eccentricity
0.00016
Inclination
43.0007°
RAAN
146.8372°
Arg. of periapsis
262.4068°
True anomaly
97.67836°
Mean anomaly
97.6605°
Eccentric anomaly
97.66943°
Mean motion
3.81729 °/min
Orbital period
94.31 mins
BSTAR
0.000045959
Loading maneuver chart data...
Computing Atmospheric mass density...
Loading historical data...
Loading historical data...
Loading historical data...
Loading historical data...
Loading historical data...
Loading historical data...
Loading historical data...

Documentation

Showing up to 5 results
|